Theta_e
314 314 316 323 323 322 325 329 330 332 337 337 337 337 354 354 354 358 349 353 352 334 334 336 340 342 343 342 342 342 339 339 338 328 321 321 319 320 322 323 324 324 325 324 323 323 325 328 332
313 314 321 322 323 326 326 329 331 331 336 337 337 338 353 356 354 353 353 352 353 334 333 334 337 340 343 342 342 342 341 339 339 333 321 321 319 320 323 324 324 325 325 324 324 324 325 327 331
312 317 322 317 318 325 327 330 331 334 337 336 336 337 349 356 357 354 351 353 352 335 335 332 335 339 342 343 342 342 343 339 340 336 323 321 320 320 322 323 324 324 322 322 323 324 324 326 329
315 317 320 316 318 322 326 329 330 332 336 337 336 335 344 353 356 352 352 353 353 336 334 333 335 337 340 342 342 342 343 340 341 339 331 321 321 321 322 323 324 323 321 321 323 324 324 325 327
318 318 315 315 316 319 322 326 327 328 334 336 335 336 348 350 354 351 350 350 352 339 332 332 335 336 338 340 341 341 342 342 340 341 334 324 321 322 324 324 324 322 322 322 322 323 323 324 325
321 318 314 315 316 317 320 324 325 325 329 335 333 332 343 350 351 351 350 351 352 336 332 332 334 334 334 335 336 338 341 343 340 341 336 329 322 322 324 325 324 322 322 322 322 323 323 324 324
315 312 313 315 317 317 319 323 321 322 325 332 333 331 349 350 353 351 352 353 353 351 329 331 334 335 332 331 332 336 340 343 341 341 339 331 326 321 324 324 323 322 322 322 322 322 323 323 324
316 312 315 314 316 316 319 322 323 323 324 327 332 328 350 353 353 351 352 352 353 353 349 330 334 336 335 333 331 333 339 342 343 341 340 334 329 323 321 323 322 322 322 322 322 322 322 323 323
316 311 311 314 315 316 320 318 322 322 323 325 325 325 343 354 353 352 352 352 352 352 352 348 333 335 336 334 332 331 337 342 343 341 342 339 332 326 322 321 321 322 322 322 321 321 321 321 321
313 312 313 315 316 316 317 318 320 320 320 323 324 324 344 348 352 353 352 353 352 351 353 352 342 335 336 335 332 336 339 342 343 342 342 341 334 327 322 322 321 322 322 321 321 321 320 321 321
315 314 314 316 317 318 318 318 320 318 317 320 321 322 323 334 339 346 352 352 352 351 351 353 351 335 337 334 332 331 337 340 342 342 342 341 337 329 323 322 322 322 322 321 321 322 321 321 320
312 315 316 317 318 318 316 319 319 319 318 319 319 320 320 320 321 335 342 351 351 351 351 351 351 343 335 335 332 331 333 338 341 341 338 337 337 329 323 323 322 321 322 322 321 322 322 322 321
313 313 315 317 318 318 319 317 317 318 318 318 319 319 319 319 320 321 337 343 350 351 352 351 350 349 340 333 335 338 331 332 334 336 336 334 332 325 331 335 329 333 332 326 321 321 323 336 333
315 314 314 316 316 318 316 316 318 318 318 318 318 318 318 319 319 319 320 343 342 337 351 351 349 349 345 340 341 343 342 336 331 331 331 330 330 325 341 342 339 338 340 337 332 334 329 337 337
315 313 313 315 316 315 318 316 316 318 318 318 318 318 318 318 318 318 319 321 339 330 330 350 349 348 340 344 346 347 343 339 335 339 336 335 332 327 342 344 341 338 339 339 336 337 336 336 336
313 313 314 315 316 317 317 316 316 318 318 318 318 318 318 318 318 318 318 319 323 326 327 341 346 349 340 341 345 348 342 338 342 340 339 338 338 336 332 343 342 337 338 337 339 338 338 338 336
314 314 314 316 316 316 316 316 316 318 318 319 319 319 319 319 319 318 318 318 318 320 324 337 347 348 342 343 343 346 344 339 342 341 342 340 340 340 337 341 343 341 340 337 337 337 336 336 336
315 314 314 315 316 317 316 316 316 319 320 321 322 322 321 320 320 319 319 319 318 318 320 331 344 350 348 346 343 348 348 346 344 346 344 345 341 340 340 339 343 341 342 341 340 339 340 342 342
317 317 316 316 317 317 317 317 317 319 320 319 322 322 323 321 321 320 319 319 318 318 320 326 348 350 348 346 342 343 337 345 344 345 347 347 345 345 344 341 342 340 342 341 339 333 337 336 335
317 316 316 316 318 318 318 319 319 319 319 322 323 323 324 322 322 322 321 319 318 318 323 337 348 350 346 344 339 335 339 344 343 344 345 343 343 342 342 335 339 331 335 331 334 331 332 331 332
317 317 316 316 317 320 319 319 320 321 322 322 323 323 322 323 324 323 321 319 318 329 336 345 350 349 347 347 342 343 342 340 341 341 341 337 334 331 332 333 335 333 334 331 336 335 332 332 329
318 318 317 317 317 319 319 317 320 320 321 322 322 322 324 325 325 322 321 320 320 332 348 349 348 348 347 347 346 344 344 342 340 339 337 335 333 331 329 327 330 331 330 328 330 331 334 329 331
318 318 318 317 316 320 319 317 318 320 321 321 320 323 325 326 328 336 341 348 347 346 344 345 347 348 346 344 345 344 343 340 337 336 334 333 331 328 326 326 327 327 328 327 328 330 332 333 332
318 318 317 316 315 317 318 319 318 319 322 322 322 325 325 327 328 329 330 329 331 333 334 341 341 337 337 339 335 336 333 329 328 329 330 330 329 330 330 327 325 328 327 327 328 331 330 331 330
318 314 315 320 317 318 318 319 318 319 323 323 325 325 325 329 330 329 329 329 329 329 342 341 335 334 333 335 339 338 334 329 329 329 330 331 331 333 333 334 332 327 329 330 329 327 325 329 330
315 315 317 321 321 320 321 320 319 320 324 325 325 325 327 327 330 330 331 330 329 331 334 342 340 337 338 339 339 337 336 332 330 333 347 341 337 336 336 338 336 333 328 333 326 324 325 331 332
317 317 317 321 323 324 321 321 323 322 324 323 323 326 327 327 331 331 333 335 335 335 338 341 338 337 338 337 335 339 341 340 339 341 340 338 340 340 341 340 339 337 339 333 330 330 334 334 334
319 319 319 320 326 324 322 326 330 328 327 323 326 325 327 328 329 334 336 336 335 333 336 336 337 340 341 342 344 343 342 344 345 343 339 339 337 338 335 326 328 324 327 330 336 335 335 327 322
319 320 319 319 319 323 327 331 327 328 328 327 324 324 324 325 330 331 333 333 333 332 332 333 333 333 334 335 337 337 338 340 339 336 329 327 327 324 325 325 331 327 332 332 333 330 325 325 328
325 319 321 321 325 324 327 327 327 326 326 326 325 324 324 326 326 328 329 329 330 330 330 329 331 332 332 333 333 335 335 334 334 334 334 334 333 332 333 332 331 330 330 331 329 326 327 326 327
Wind_Speed
10 6 5 8 3 2 6 9 11 17 2 14 10 8 15 12 7 4 12 23 18 24 30 29 28 27 25 23 21 19 18 17 16 16 18 19 20 22 22 21 18 16 14 13 13 13 13 13 13
7 7 2 5 3 2 6 17 20 8 10 10 9 16 23 12 27 21 17 20 15 21 30 30 28 27 26 24 22 20 18 17 16 16 18 19 20 21 20 18 16 14 12 12 11 11 12 11 12
6 6 2 4 4 7 6 15 8 11 12 13 5 8 12 21 21 15 15 22 16 25 29 30 29 27 26 24 22 21 19 18 16 15 16 18 19 19 18 16 14 12 11 10 10 10 10 10 10
4 3 6 1 10 8 18 17 19 16 12 7 4 4 10 14 19 24 22 19 16 23 27 29 29 28 27 25 24 22 20 19 17 15 15 17 18 18 17 15 13 11 10 10 10 9 9 9 9
3 6 3 5 11 9 19 22 22 14 10 8 4 6 10 14 20 25 23 19 16 25 28 29 30 28 27 26 25 24 23 21 19 17 15 16 18 19 17 16 13 11 10 10 10 9 9 9 8
4 5 0 10 12 11 14 30 25 16 17 3 5 5 6 20 20 28 21 18 12 21 31 31 30 29 28 27 26 26 25 24 22 20 17 17 18 19 19 17 14 11 10 10 10 9 8 8 7
6 2 6 9 11 10 13 33 11 13 12 5 6 4 9 20 17 23 21 15 16 15 26 32 33 32 29 27 27 27 27 26 25 22 19 18 18 20 20 18 15 13 11 10 10 9 8 8 7
7 2 5 6 11 13 18 21 24 18 21 19 12 5 6 21 22 20 23 21 19 19 17 28 32 34 33 30 27 28 28 28 26 24 21 18 18 19 20 19 17 15 13 11 10 9 8 8 7
20 3 4 6 7 11 26 11 14 12 6 8 6 6 10 20 16 19 24 22 25 22 21 22 31 33 33 31 30 28 28 27 25 24 21 20 19 19 21 21 18 16 14 13 12 11 9 9 8
10 9 10 8 8 11 20 12 15 10 18 4 3 2 12 11 14 15 24 26 28 27 24 20 28 33 32 30 28 28 28 29 28 26 24 22 19 18 20 21 20 18 16 14 13 13 12 11 9
8 16 10 16 31 29 19 8 11 10 6 12 9 4 10 5 13 16 19 25 32 30 26 23 19 32 30 29 29 31 32 31 29 27 25 22 20 19 20 21 22 20 17 16 15 14 13 12 10
13 22 24 25 29 25 9 15 3 8 12 17 17 15 16 17 13 15 23 23 31 36 32 28 25 21 30 25 26 28 30 29 28 27 25 23 21 19 18 21 21 20 18 17 17 16 14 13 12
19 15 27 31 32 33 22 10 10 11 14 17 17 18 20 25 24 22 25 26 22 19 31 33 30 22 22 27 25 22 27 28 27 26 25 23 22 21 17 14 17 15 15 18 19 17 14 10 11
12 25 25 29 30 29 12 8 15 20 20 21 21 23 25 30 30 27 22 26 20 4 22 32 31 21 19 19 24 23 19 22 24 23 24 23 20 22 16 17 17 15 14 11 12 11 14 14 13
28 18 13 21 17 10 14 14 14 19 20 25 27 31 31 34 39 31 32 25 28 17 9 26 33 29 29 23 21 18 20 12 15 11 14 12 17 23 16 18 21 21 20 15 14 16 11 13 16
12 11 14 9 9 11 9 23 15 22 30 30 35 33 31 33 34 33 35 36 24 25 21 25 34 32 27 35 25 17 17 14 14 19 17 12 11 15 26 18 18 18 17 22 16 13 17 20 22
10 12 9 10 8 6 14 20 14 27 30 18 32 33 33 34 33 33 31 35 34 23 26 19 30 31 34 32 39 19 18 25 19 24 25 28 28 27 25 23 22 19 19 20 20 21 20 24 23
7 7 9 12 16 21 20 21 12 26 18 18 12 18 25 34 32 31 31 31 33 24 30 24 28 33 35 43 40 24 15 17 19 19 22 25 32 31 29 29 28 28 18 23 22 15 21 19 20
11 15 13 16 21 17 19 20 12 16 20 17 21 24 27 27 26 28 31 31 31 25 31 32 32 37 44 38 36 37 33 25 27 27 23 21 23 22 20 31 28 26 29 31 16 20 19 22 23
18 20 19 16 15 11 7 6 8 12 10 19 18 20 11 23 26 24 29 30 30 29 25 24 30 36 26 38 39 27 44 37 32 32 26 20 17 20 26 17 31 32 27 26 27 32 19 25 18
21 21 15 13 17 4 7 4 7 5 10 23 16 11 4 7 14 25 19 27 30 19 19 24 26 25 26 31 32 33 33 31 38 30 27 26 34 33 34 37 42 40 39 33 25 27 28 21 18
19 21 19 20 15 5 6 5 5 6 11 7 14 12 10 17 9 16 16 23 22 21 22 26 27 24 21 22 33 34 34 41 38 40 36 34 34 27 29 21 25 33 37 37 27 29 29 23 25
18 16 17 20 8 3 9 3 5 7 11 13 9 16 20 23 21 14 15 16 16 15 15 19 20 24 26 31 32 30 32 33 35 34 30 23 28 26 25 22 22 23 25 29 30 26 25 25 26
19 15 16 9 3 5 7 4 5 5 8 10 8 23 23 27 25 25 21 19 9 9 9 15 18 19 22 29 29 28 23 23 23 24 26 25 23 26 27 30 29 28 32 32 23 20 26 23 27
16 8 4 3 7 8 9 6 8 10 7 8 14 23 21 30 25 17 14 15 12 12 10 20 18 19 24 28 30 29 26 28 24 25 25 23 30 32 28 29 37 37 32 23 13 17 26 20 28
9 7 4 6 4 3 7 15 12 19 5 21 29 30 30 28 26 24 18 12 6 8 14 4 13 15 21 24 28 30 26 27 27 21 19 21 25 27 27 30 34 41 40 28 20 17 19 25 30
7 10 7 2 6 4 4 6 6 16 12 15 22 30 30 24 23 18 14 12 10 6 8 11 4 4 19 16 16 18 21 22 25 23 23 21 21 26 28 30 30 32 32 29 25 23 25 33 29
8 6 11 3 1 6 6 2 7 12 12 8 14 19 28 26 22 23 20 18 16 14 14 13 12 12 6 5 14 16 16 17 19 20 20 22 24 28 28 27 19 20 19 23 22 24 26 23 23
10 15 6 6 7 5 1 2 5 9 6 8 10 19 22 17 27 24 24 21 19 17 13 15 18 17 14 11 7 4 7 1 4 4 7 11 16 22 22 13 25 27 19 18 18 19 18 20 21
13 6 7 5 3 2 5 3 3 9 11 12 13 26 23 20 16 20 21 19 17 15 13 15 16 15 14 12 10 8 7 12 12 10 7 9 10 3 2 10 9 7 8 10 16 17 18 22 23
Wind_Direction
263 259 291 321 25 118 262 263 252 288 359 107 65 55 81 58 124 177 152 182 169 166 163 162 162 163 162 160 158 154 149 142 136 130 138 138 140 141 142 140 137 132 127 124 123 125 128 127 124
244 219 257 271 140 276 267 248 258 286 125 105 87 74 81 76 101 123 150 177 171 173 165 163 166 167 168 166 165 163 158 153 145 138 141 144 145 147 148 145 141 137 134 131 131 134 136 135 131
219 215 256 163 196 217 248 258 295 332 77 51 52 69 92 124 124 136 179 172 174 174 168 164 167 171 173 172 171 169 167 162 154 145 146 151 151 153 154 152 150 146 142 140 141 143 144 142 141
156 197 257 173 243 244 241 271 273 290 105 97 13 57 88 134 132 150 171 178 177 178 171 167 170 175 178 177 178 176 174 171 165 156 152 157 159 160 159 160 160 155 151 152 154 153 152 151 150
213 256 229 228 248 262 270 271 286 311 316 79 91 42 94 108 131 152 176 191 189 181 175 174 173 178 181 183 182 181 180 178 175 168 165 165 169 170 169 172 169 165 163 161 162 163 161 158 158
266 224 269 232 259 262 261 268 272 276 290 97 79 52 123 140 136 154 180 194 201 175 178 178 178 181 184 188 187 185 185 183 182 179 176 176 178 179 180 181 179 177 176 173 171 174 169 165 164
224 315 228 253 265 273 255 263 265 254 256 213 145 106 108 138 141 152 175 184 213 175 178 182 183 182 187 189 192 191 188 188 188 187 187 186 186 189 189 189 189 187 184 184 182 183 183 177 174
251 149 267 262 256 264 269 282 293 294 246 258 179 117 102 127 143 146 167 184 204 194 195 192 190 187 188 189 193 195 192 193 193 194 195 196 196 197 197 197 197 195 192 191 191 193 195 196 195
236 215 231 237 249 267 291 350 337 336 86 77 72 64 117 137 144 148 168 182 196 206 205 209 201 196 193 193 191 196 195 197 200 202 203 205 207 206 204 204 203 203 201 199 198 201 204 208 212
199 212 227 245 256 272 285 314 344 7 343 90 117 141 121 139 154 166 179 182 195 212 209 214 211 203 199 198 196 192 196 200 204 207 209 212 216 216 215 211 210 211 211 209 208 209 209 211 214
243 235 248 228 240 253 270 305 321 351 337 338 356 317 280 196 188 197 201 200 203 218 220 210 222 211 205 204 203 201 200 202 207 211 215 218 222 221 220 216 217 218 220 219 219 222 222 220 219
252 240 241 256 269 274 273 297 278 282 282 299 310 306 292 287 280 234 214 217 215 211 219 227 217 211 211 212 213 215 211 209 210 216 219 221 226 233 222 220 223 226 231 234 234 232 233 235 231
241 247 242 244 248 261 273 270 270 264 273 282 285 285 280 275 276 270 236 222 238 218 207 218 211 203 200 215 220 221 226 222 218 221 227 225 227 228 217 231 234 240 252 246 247 244 239 227 224
247 238 250 249 244 254 269 257 258 263 271 266 265 262 259 265 269 275 272 223 224 220 203 199 194 197 190 207 218 231 234 236 230 231 233 234 233 214 211 234 240 241 252 264 252 248 243 238 240
243 258 249 238 240 252 272 279 252 252 257 257 252 245 245 250 256 262 259 267 233 241 259 205 196 208 194 219 222 226 229 233 217 237 233 241 238 215 202 225 236 245 253 256 254 255 250 250 250
249 249 249 254 213 225 212 260 259 252 248 244 246 241 237 240 251 257 255 251 257 254 255 213 222 224 212 211 205 202 208 212 219 230 233 238 236 230 215 214 235 236 239 247 254 236 236 233 241
242 243 254 254 242 227 210 250 244 250 255 252 237 236 234 235 237 249 258 255 253 253 251 222 212 211 202 193 199 179 195 206 196 209 223 216 218 217 218 216 215 218 228 243 246 259 261 258 257
234 230 243 249 234 233 238 237 233 239 248 264 236 247 222 224 229 237 245 256 250 244 250 236 221 207 195 185 189 187 200 209 212 207 211 221 216 219 219 219 215 217 226 229 225 229 246 239 246
258 245 235 231 239 235 231 231 199 222 243 261 255 248 227 222 230 240 237 244 242 228 239 237 214 195 189 196 195 200 244 228 224 221 217 213 220 219 224 232 224 227 225 218 247 221 239 249 283
244 250 257 278 268 209 179 205 201 210 221 233 243 254 247 219 230 235 235 231 234 223 233 215 201 198 216 205 203 204 200 214 234 227 225 234 249 259 244 264 223 235 246 249 228 218 235 244 252
232 243 254 254 280 230 143 227 211 252 249 242 241 217 225 313 253 230 226 221 221 199 205 203 204 199 211 218 205 193 200 208 217 224 224 248 263 279 265 265 259 246 225 232 220 205 228 261 244
230 229 247 259 269 229 146 239 245 245 250 233 231 183 111 63 32 205 212 202 210 199 204 207 214 214 215 220 203 209 207 216 219 220 242 250 249 236 248 258 253 248 239 223 226 230 236 236 230
242 243 235 246 265 288 279 105 251 232 240 228 216 159 108 91 77 111 141 150 169 188 205 223 225 227 226 222 224 223 216 231 238 242 247 244 246 238 248 254 235 230 217 227 237 239 233 239 251
243 241 245 223 220 281 239 152 271 246 259 171 168 134 115 108 109 94 85 73 75 207 224 213 231 225 218 219 226 225 224 232 233 235 230 234 243 252 252 246 238 234 231 235 237 233 239 238 246
230 217 224 191 207 229 198 256 227 257 268 175 133 124 113 108 107 106 96 73 53 46 224 238 233 235 242 235 229 224 227 238 242 244 239 236 249 250 258 261 250 235 227 222 257 261 231 237 234
219 173 169 188 194 222 243 223 232 249 89 123 125 117 108 93 99 97 93 98 107 65 74 158 238 245 251 251 240 237 241 245 250 251 274 263 255 260 264 264 261 242 232 218 202 193 199 228 230
217 234 211 121 96 4 242 291 268 233 127 119 118 112 110 107 91 93 92 87 81 85 75 51 88 258 247 251 261 259 263 261 264 265 252 257 255 254 254 286 265 238 225 228 217 226 225 219 228
215 181 222 124 59 180 263 355 29 13 21 132 113 115 116 116 108 108 104 101 97 80 82 63 59 70 155 172 225 236 259 261 262 266 266 262 254 256 261 280 292 274 227 222 227 223 218 233 242
186 213 193 166 176 199 206 127 317 341 3 48 71 71 74 68 131 121 117 109 100 95 86 77 67 64 55 51 24 60 69 342 296 273 266 284 291 287 289 273 231 223 233 219 222 234 237 238 249
304 185 161 123 223 155 150 221 332 27 15 62 54 76 72 79 81 127 122 117 113 106 104 93 83 77 64 66 67 55 65 77 74 76 62 65 36 88 214 231 215 222 218 231 241 250 254 253 260